Time,TemperatureF,DewpointF,PressureIn,WindDirection,WindDirectionDegrees,WindSpeedMPH,WindSpeedGustMPH,Humidity,HourlyPrecipIn,Conditions,Clouds,dailyrainin,SolarRadiationWatts/m^2,SoftwareType,DateUTC
2013-02-14 00:02:00,42.0,30.0,-100.00,West,263,9.0,13.0,62,0.00,,,0.14,0.000000,,2013-02-14 06:02:00,
2013-02-14 00:32:00,42.0,31.0,-100.00,WSW,253,8.0,13.0,64,0.00,,,0.14,0.000000,,2013-02-14 06:32:00,
2013-02-14 00:42:00,42.0,31.0,-100.00,WSW,253,8.0,13.0,64,0.00,,,0.14,0.000000,,2013-02-14 06:42:00,
2013-02-14 00:52:00,42.0,31.0,-100.00,WSW,253,8.0,13.0,64,0.00,,,0.14,0.000000,,2013-02-14 06:52:00,
2013-02-14 01:01:00,42.0,31.0,-100.00,WSW,253,8.0,13.0,64,0.00,,,0.14,0.000000,,2013-02-14 07:01:00,
2013-02-14 01:32:00,42.0,31.0,-100.00,WSW,258,9.0,16.0,66,0.00,,,0.14,0.000000,,2013-02-14 07:32:00,
2013-02-14 01:42:00,42.0,31.0,-100.00,WSW,258,9.0,16.0,66,0.00,,,0.14,0.000000,,2013-02-14 07:42:00,
2013-02-14 01:52:00,42.0,31.0,-100.00,WSW,258,9.0,16.0,66,0.00,,,0.14,0.000000,,2013-02-14 07:52:00,
2013-02-14 02:01:00,42.0,31.0,-100.00,WSW,258,9.0,16.0,66,0.00,,,0.14,0.000000,,2013-02-14 08:01:00,
2013-02-14 02:32:00,41.0,30.0,-100.00,West,262,8.0,13.0,65,0.00,,,-99.99,0.000000,,2013-02-14 08:32:00,
2013-02-14 02:43:00,41.0,30.0,-100.00,West,262,8.0,13.0,65,0.00,,,-99.99,0.000000,,2013-02-14 08:43:00,
2013-02-14 02:52:00,41.0,30.0,-100.00,West,262,8.0,13.0,65,0.00,,,-99.99,0.000000,,2013-02-14 08:52:00,
2013-02-14 03:02:00,41.0,30.0,-100.00,West,262,8.0,13.0,65,0.00,,,-99.99,0.000000,,2013-02-14 09:02:00,
2013-02-14 03:32:00,41.0,28.0,-100.00,West,268,7.0,14.0,60,0.00,,,0.14,0.000000,,2013-02-14 09:32:00,
2013-02-14 03:42:00,41.0,28.0,-100.00,West,268,7.0,14.0,60,0.00,,,0.14,0.000000,,2013-02-14 09:42:00,
2013-02-14 03:52:00,41.0,28.0,-100.00,West,268,7.0,14.0,60,0.00,,,0.14,0.000000,,2013-02-14 09:52:00,
2013-02-14 04:02:00,41.0,28.0,-100.00,West,268,7.0,14.0,60,0.00,,,0.14,0.000000,,2013-02-14 10:02:00,
2013-02-14 04:32:00,41.0,27.0,-100.00,West,272,8.0,14.0,58,0.00,,,0.14,0.000000,,2013-02-14 10:32:00,
2013-02-14 04:42:00,41.0,27.0,-100.00,West,272,8.0,14.0,58,0.00,,,0.14,0.000000,,2013-02-14 10:42:00,
2013-02-14 04:52:00,41.0,27.0,-100.00,West,272,8.0,14.0,58,0.00,,,0.14,0.000000,,2013-02-14 10:52:00,
2013-02-14 05:02:00,41.0,27.0,-100.00,West,272,8.0,14.0,58,0.00,,,0.14,0.000000,,2013-02-14 11:02:00,
2013-02-14 05:32:00,41.0,25.0,-100.00,West,277,9.0,16.0,53,0.00,,,0.14,0.000000,,2013-02-14 11:32:00,
2013-02-14 05:42:00,41.0,25.0,-100.00,West,277,9.0,16.0,53,0.00,,,0.14,0.000000,,2013-02-14 11:42:00,
2013-02-14 05:52:00,41.0,25.0,-100.00,West,277,9.0,16.0,53,0.00,,,0.14,0.000000,,2013-02-14 11:52:00,
2013-02-14 06:02:00,41.0,25.0,-100.00,West,277,9.0,16.0,53,0.00,,,0.14,0.000000,,2013-02-14 12:02:00,
2013-02-14 06:32:00,40.0,26.0,-100.00,WNW,286,10.0,14.0,58,-99.99,,,0.14,0.000000,,2013-02-14 12:32:00,
2013-02-14 06:42:00,40.0,26.0,-100.00,WNW,286,10.0,14.0,58,-99.99,,,0.14,0.000000,,2013-02-14 12:42:00,
2013-02-14 06:53:00,40.0,26.0,-100.00,WNW,286,10.0,14.0,58,-99.99,,,0.14,0.000000,,2013-02-14 12:53:00,
2013-02-14 07:02:00,40.0,26.0,-100.00,WNW,286,10.0,14.0,58,-99.99,,,0.14,0.000000,,2013-02-14 13:02:00,
2013-02-14 08:32:00,45.0,22.0,-100.00,West,272,8.0,15.0,39,-99.99,,,0.14,72.000000,,2013-02-14 14:32:00,
2013-02-14 09:32:00,45.0,24.0,-100.00,West,267,10.0,18.0,44,-99.99,,,0.14,290.000000,,2013-02-14 15:32:00,
2013-02-14 09:42:00,45.0,24.0,-100.00,West,267,10.0,18.0,44,-99.99,,,0.14,290.000000,,2013-02-14 15:42:00,
2013-02-14 09:52:00,45.0,24.0,-100.00,West,267,10.0,18.0,44,-99.99,,,0.14,290.000000,,2013-02-14 15:52:00,
2013-02-14 10:01:00,45.0,24.0,-100.00,West,267,10.0,18.0,44,-99.99,,,0.14,290.000000,,2013-02-14 16:01:00,
2013-02-14 10:32:00,48.0,28.0,-100.00,WSW,255,8.0,15.0,45,0.00,,,0.03,507.000000,,2013-02-14 16:32:00,
2013-02-14 10:42:00,48.0,28.0,-100.00,WSW,255,8.0,15.0,45,0.00,,,0.03,507.000000,,2013-02-14 16:42:00,
2013-02-14 10:52:00,48.0,28.0,-100.00,WSW,255,8.0,15.0,45,0.00,,,0.03,507.000000,,2013-02-14 16:52:00,
2013-02-14 11:01:00,48.0,28.0,-100.00,WSW,255,8.0,15.0,45,0.00,,,0.03,507.000000,,2013-02-14 17:01:00,
2013-02-14 11:32:00,51.0,30.0,-100.00,WSW,240,7.0,12.0,44,0.00,,,0.00,682.000000,,2013-02-14 17:32:00,
2013-02-14 11:42:00,51.0,30.0,-100.00,WSW,240,7.0,12.0,44,0.00,,,0.00,682.000000,,2013-02-14 17:42:00,
2013-02-14 11:52:00,51.0,30.0,-100.00,WSW,240,7.0,12.0,44,0.00,,,0.00,682.000000,,2013-02-14 17:52:00,
2013-02-14 12:01:00,51.0,30.0,-100.00,WSW,240,7.0,12.0,44,0.00,,,0.00,682.000000,,2013-02-14 18:01:00,
2013-02-14 12:32:00,55.0,31.0,-100.00,West,260,4.0,12.0,39,0.00,,,0.00,799.000000,,2013-02-14 18:32:00,
2013-02-14 12:42:00,55.0,31.0,-100.00,West,260,4.0,12.0,39,0.00,,,0.00,799.000000,,2013-02-14 18:42:00,
2013-02-14 12:52:00,55.0,31.0,-100.00,West,260,4.0,12.0,39,0.00,,,0.00,799.000000,,2013-02-14 18:52:00,
2013-02-14 13:02:00,55.0,31.0,-100.00,West,260,4.0,12.0,39,0.00,,,0.00,799.000000,,2013-02-14 19:02:00,
2013-02-14 13:32:00,56.0,33.0,-100.00,WSW,245,6.0,10.0,42,0.00,,,0.00,843.000000,,2013-02-14 19:32:00,
2013-02-14 13:42:00,56.0,33.0,-100.00,WSW,245,6.0,10.0,42,0.00,,,0.00,843.000000,,2013-02-14 19:42:00,
2013-02-14 13:52:00,56.0,33.0,-100.00,WSW,245,6.0,10.0,42,0.00,,,0.00,843.000000,,2013-02-14 19:52:00,
2013-02-14 14:01:00,56.0,33.0,-100.00,WSW,245,6.0,10.0,42,0.00,,,0.00,843.000000,,2013-02-14 20:01:00,
2013-02-14 14:32:00,54.0,34.0,-100.00,SW,218,11.0,16.0,47,0.00,,,0.00,813.000000,,2013-02-14 20:32:00,
2013-02-14 14:42:00,54.0,34.0,-100.00,SW,218,11.0,16.0,47,0.00,,,0.00,813.000000,,2013-02-14 20:42:00,
2013-02-14 14:52:00,54.0,34.0,-100.00,SW,218,11.0,16.0,47,0.00,,,0.00,813.000000,,2013-02-14 20:52:00,
2013-02-14 15:02:00,54.0,34.0,-100.00,SW,218,11.0,16.0,47,0.00,,,0.00,813.000000,,2013-02-14 21:02:00,
2013-02-14 15:32:00,56.0,34.0,-100.00,SW,216,10.0,18.0,44,0.00,,,0.00,700.000000,,2013-02-14 21:32:00,
2013-02-14 15:42:00,56.0,34.0,-100.00,SW,216,10.0,18.0,44,0.00,,,0.00,700.000000,,2013-02-14 21:42:00,
2013-02-14 15:52:00,56.0,34.0,-100.00,SW,216,10.0,18.0,44,0.00,,,0.00,700.000000,,2013-02-14 21:52:00,
2013-02-14 16:02:00,56.0,34.0,-100.00,SW,216,10.0,18.0,44,0.00,,,0.00,700.000000,,2013-02-14 22:02:00,
2013-02-14 16:32:00,58.0,33.0,-100.00,WSW,245,5.0,16.0,38,0.00,,,0.00,528.000000,,2013-02-14 22:32:00,
2013-02-14 16:42:00,58.0,33.0,-100.00,WSW,245,5.0,16.0,38,0.00,,,0.00,528.000000,,2013-02-14 22:42:00,
2013-02-14 16:52:00,58.0,33.0,-100.00,WSW,245,5.0,16.0,38,0.00,,,0.00,528.000000,,2013-02-14 22:52:00,
2013-02-14 17:01:00,58.0,33.0,-100.00,WSW,245,5.0,16.0,38,0.00,,,0.00,528.000000,,2013-02-14 23:01:00,
2013-02-14 17:32:00,56.0,30.0,-100.00,WSW,243,5.0,11.0,37,0.00,,,0.00,294.000000,,2013-02-14 23:32:00,
2013-02-14 17:42:00,56.0,30.0,-100.00,WSW,243,5.0,11.0,37,0.00,,,0.00,294.000000,,2013-02-14 23:42:00,
2013-02-14 17:52:00,56.0,30.0,-100.00,WSW,243,5.0,11.0,37,0.00,,,0.00,294.000000,,2013-02-14 23:52:00,
2013-02-14 18:01:00,56.0,30.0,-100.00,WSW,243,5.0,11.0,37,0.00,,,0.00,294.000000,,2013-02-15 00:01:00,
2013-02-14 18:32:00,51.0,29.0,-100.00,WNW,286,4.0,10.0,43,0.00,,,0.00,67.000000,,2013-02-15 00:32:00,
2013-02-14 18:42:00,51.0,29.0,-100.00,WNW,286,4.0,10.0,43,0.00,,,0.00,67.000000,,2013-02-15 00:42:00,
2013-02-14 18:52:00,51.0,29.0,-100.00,WNW,286,4.0,10.0,43,0.00,,,0.00,67.000000,,2013-02-15 00:52:00,
2013-02-14 19:02:00,51.0,29.0,-100.00,WNW,286,4.0,10.0,43,0.00,,,0.00,67.000000,,2013-02-15 01:02:00,
2013-02-14 19:32:00,49.0,29.0,-100.00,NW,321,7.0,11.0,46,0.00,,,-99.99,0.000000,,2013-02-15 01:32:00,
2013-02-14 19:42:00,49.0,29.0,-100.00,NW,321,7.0,11.0,46,0.00,,,-99.99,0.000000,,2013-02-15 01:42:00,
2013-02-14 19:52:00,49.0,29.0,-100.00,NW,321,7.0,11.0,46,0.00,,,-99.99,0.000000,,2013-02-15 01:52:00,
2013-02-14 20:01:00,49.0,29.0,-100.00,NW,321,7.0,11.0,46,0.00,,,-99.99,0.000000,,2013-02-15 02:01:00,
2013-02-14 20:32:00,48.0,31.0,-100.00,NNW,338,9.0,12.0,51,0.00,,,0.00,0.000000,,2013-02-15 02:32:00,
2013-02-14 20:42:00,48.0,31.0,-100.00,NNW,338,9.0,12.0,51,0.00,,,0.00,0.000000,,2013-02-15 02:42:00,
2013-02-14 20:52:00,48.0,31.0,-100.00,NNW,338,9.0,12.0,51,0.00,,,0.00,0.000000,,2013-02-15 02:52:00,
2013-02-14 21:02:00,48.0,31.0,-100.00,NNW,338,9.0,12.0,51,0.00,,,0.00,0.000000,,2013-02-15 03:02:00,
2013-02-14 21:32:00,47.0,31.0,-100.00,NNW,335,11.0,16.0,53,0.00,,,0.00,0.000000,,2013-02-15 03:32:00,
2013-02-14 21:42:00,47.0,31.0,-100.00,NNW,335,11.0,16.0,53,0.00,,,0.00,0.000000,,2013-02-15 03:42:00,
2013-02-14 21:52:00,47.0,31.0,-100.00,NNW,335,11.0,16.0,53,0.00,,,0.00,0.000000,,2013-02-15 03:52:00,
2013-02-14 22:01:00,47.0,31.0,-100.00,NNW,335,11.0,16.0,53,0.00,,,0.00,0.000000,,2013-02-15 04:01:00,
2013-02-14 22:32:00,45.0,29.0,-100.00,NNW,339,13.0,20.0,54,0.00,,,0.00,0.000000,,2013-02-15 04:32:00,
2013-02-14 22:42:00,45.0,29.0,-100.00,NNW,339,13.0,20.0,54,0.00,,,0.00,0.000000,,2013-02-15 04:42:00,
2013-02-14 22:52:00,45.0,29.0,-100.00,NNW,339,13.0,20.0,54,0.00,,,0.00,0.000000,,2013-02-15 04:52:00,
2013-02-14 23:02:00,45.0,29.0,-100.00,NNW,339,13.0,20.0,54,0.00,,,0.00,0.000000,,2013-02-15 05:02:00,
2013-02-14 23:32:00,43.0,29.0,-100.00,NNW,335,14.0,22.0,57,0.00,,,0.00,0.000000,,2013-02-15 05:32:00,
2013-02-14 23:42:00,43.0,29.0,-100.00,NNW,335,14.0,22.0,57,0.00,,,0.00,0.000000,,2013-02-15 05:42:00,
2013-02-14 23:52:00,43.0,29.0,-100.00,NNW,335,14.0,22.0,57,0.00,,,0.00,0.000000,,2013-02-15 05:52:00,